period_start,C,m1,H,J0,J1,J2,J3,J4,J5,JA,JB,JC,JD,JJ,JK,JN,#
2015-11-11 00:00:50,0.18,9.75,0.00,13.47,18.19,22.07,15.20,52.52,1016.05,2068.02,1519.73,1471.36,1612.26,599.95,615.43,49.29,0000 0000 0000 0000 000000
2015-11-11 00:05:52,0.13,9.76,0.00,13.46,18.19,22.10,15.11,52.58,1016.12,2068.02,1518.79,1470.78,1611.36,599.76,615.35,49.34,0000 0000 0000 0000 000000
2015-11-11 00:10:53,0.10,9.77,0.00,13.46,18.19,22.09,15.18,52.53,1016.13,2068.02,1517.97,1470.03,1610.87,600.21,615.76,49.39,0000 0000 0000 0000 000000
2015-11-11 00:15:55,0.11,9.77,0.00,13.49,18.19,22.10,15.14,52.50,1016.14,2068.00,1517.11,1469.86,1610.08,599.94,615.50,49.44,0000 0000 0000 0000 000000
2015-11-11 00:20:56,0.14,9.78,0.00,13.49,18.19,22.16,15.16,52.41,1016.15,2068.01,1516.37,1469.12,1609.74,600.53,616.05,49.49,0000 0000 0000 0000 000000
2015-11-11 00:25:57,0.07,9.78,0.00,13.48,18.20,22.10,15.11,52.52,1016.20,2068.01,1515.71,1468.93,1609.05,599.63,615.26,49.54,0000 0000 0000 0000 000000
2015-11-11 00:30:59,0.16,9.79,0.00,13.51,18.21,22.18,15.13,52.42,1016.31,2068.01,1514.80,1468.13,1608.47,600.01,615.60,49.59,0000 0000 0000 0000 000000
2015-11-11 00:36:00,0.05,9.79,0.00,13.49,18.21,22.18,15.24,52.66,1016.34,2068.00,1513.98,1467.91,1608.00,600.23,615.77,49.64,0000 0000 0000 0000 000000
2015-11-11 00:41:01,0.18,9.80,0.00,13.50,18.22,22.15,15.11,52.65,1016.14,2068.00,1513.12,1467.12,1607.30,599.89,615.42,49.69,0000 0000 0000 0000 000000
2015-11-11 00:46:03,0.08,9.81,0.00,13.51,18.22,22.09,15.21,52.58,1016.13,2068.00,1512.32,1466.90,1606.88,599.88,615.38,49.74,0000 0000 0000 0000 000000
2015-11-11 00:51:04,0.16,9.81,0.00,13.49,18.22,22.17,15.07,52.50,1016.13,2067.99,1511.55,1466.11,1606.08,599.74,615.43,49.79,0000 0000 0000 0000 000000
2015-11-11 00:56:05,0.02,9.82,0.00,13.52,18.22,22.08,15.07,52.42,1016.13,2067.99,1510.93,1466.00,1605.99,599.92,615.42,49.84,0000 0000 0000 0000 000000
2015-11-11 01:01:06,0.12,9.82,0.00,13.50,18.22,22.12,15.17,52.54,1016.13,2068.00,1510.08,1465.81,1605.34,599.88,615.39,49.89,0000 0000 0000 0000 000000
2015-11-11 01:06:08,0.13,9.83,0.00,13.51,18.22,22.11,15.02,52.45,1016.13,2068.00,1509.44,1465.06,1604.88,599.36,614.86,49.94,0000 0000 0000 0000 000000
2015-11-11 01:11:09,0.13,9.83,0.00,13.51,18.22,22.13,15.13,52.72,1016.13,2067.99,1508.72,1464.55,1604.08,600.12,615.65,49.99,0000 0000 0000 0000 000000
2015-11-11 01:16:11,0.08,9.84,0.00,13.50,18.23,22.14,15.13,52.55,1016.16,2067.99,1507.94,1464.00,1603.49,599.85,615.43,50.04,0000 0000 0000 0000 000000
2015-11-11 01:21:12,0.14,9.85,0.00,13.52,18.24,22.20,15.13,52.50,1016.18,2067.99,1507.01,1463.42,1602.95,599.98,615.48,50.09,0000 0000 0000 0000 000000
2015-11-11 01:26:13,0.11,9.85,0.00,13.49,18.24,22.19,15.13,52.58,1016.14,2068.00,1506.09,1463.00,1602.15,599.70,615.09,50.14,0000 0000 0000 0000 000000
2015-11-11 01:31:14,0.14,9.86,0.00,13.51,18.24,22.16,15.12,52.59,1016.13,2068.00,1505.31,1462.31,1601.83,599.73,615.40,50.20,0000 0000 0000 0000 000000
2015-11-11 01:36:16,0.09,9.86,0.00,13.52,18.24,22.13,15.20,52.67,1016.13,2068.00,1504.69,1461.86,1601.03,600.28,615.79,50.25,0000 0000 0000 0000 000000
2015-11-11 01:41:17,0.19,9.87,0.00,13.50,18.24,22.15,15.15,52.50,1016.15,2067.99,1503.59,1461.06,1600.18,599.92,615.43,50.30,0000 0000 0000 0000 000000
2015-11-11 01:46:18,0.18,9.88,0.00,13.52,18.24,22.16,15.09,52.51,1016.13,2067.99,1502.55,1460.36,1599.39,599.64,615.08,50.35,0000 0000 0000 0000 000000
2015-11-11 01:51:19,0.06,9.89,0.00,13.51,18.24,22.20,15.14,52.65,1016.13,2067.98,1501.75,1459.95,1599.00,600.08,615.41,50.40,0000 0000 0000 0000 000000
2015-11-11 01:56:21,0.18,9.89,0.00,13.52,18.24,22.18,15.15,52.59,1016.13,2067.99,1500.72,1459.12,1598.23,599.99,615.55,50.45,0000 0000 0000 0000 000000
2015-11-11 02:01:22,0.12,9.90,0.00,13.52,18.25,22.18,15.19,52.62,1016.13,2067.99,1499.93,1458.51,1597.62,599.86,615.28,50.50,0000 0000 0000 0000 000000
2015-11-11 02:06:23,0.11,9.91,0.00,13.52,18.25,22.19,15.06,52.54,1016.14,2067.99,1499.00,1457.98,1596.95,599.78,615.30,50.55,0000 0000 0000 0000 000000
2015-11-11 02:11:24,0.18,9.92,0.00,13.52,18.26,22.19,15.15,52.52,1016.15,2067.98,1498.00,1457.18,1596.07,599.82,615.20,50.60,0000 0000 0000 0000 000000
2015-11-11 02:16:25,0.17,9.93,0.00,13.51,18.27,22.19,15.19,52.75,1016.16,2067.97,1497.02,1456.30,1595.18,599.86,615.35,50.65,0000 0000 0000 0000 000000
2015-11-11 02:21:26,0.15,9.93,0.00,13.52,18.27,22.21,15.23,52.69,1016.14,2067.97,1496.04,1455.70,1594.39,600.12,615.56,50.70,0000 0000 0000 0000 000000
2015-11-11 02:26:28,0.17,9.94,0.00,13.50,18.27,22.18,15.20,52.76,1016.16,2067.96,1494.90,1454.97,1593.52,599.90,615.41,50.75,0000 0000 0000 0000 000000
2015-11-11 02:31:29,0.16,9.95,0.00,13.51,18.27,22.20,15.10,52.56,1016.26,2067.93,1493.92,1454.11,1592.74,599.70,615.26,50.80,0000 0000 0000 0000 000000
2015-11-11 02:36:30,0.17,9.96,0.00,13.52,18.27,22.27,15.20,52.72,1016.26,2067.93,1492.87,1453.41,1591.92,599.93,615.45,50.85,0000 0000 0000 0000 000000
2015-11-11 02:41:32,0.12,9.97,0.00,13.51,18.27,22.19,15.15,52.64,1016.38,2067.96,1491.95,1452.83,1591.06,600.07,615.64,50.90,0000 0000 0000 0000 000000
2015-11-11 02:46:34,0.16,9.97,0.00,13.52,18.27,22.18,15.19,52.52,1016.30,2067.96,1491.09,1452.04,1590.32,600.31,615.78,50.95,0000 0000 0000 0000 000000
2015-11-11 02:51:35,0.14,9.98,0.00,13.51,18.27,22.22,15.16,52.76,1016.22,2067.95,1490.19,1451.50,1589.77,600.07,615.64,51.00,0000 0000 0000 0000 000000
2015-11-11 02:56:36,0.12,9.99,0.00,13.52,18.27,22.23,15.15,52.67,1016.23,2067.94,1489.18,1450.89,1588.98,599.95,615.41,51.06,0000 0000 0000 0000 000000
2015-11-11 03:01:38,0.18,10.00,0.00,13.52,18.27,22.23,15.22,52.80,1016.44,2067.94,1488.15,1450.07,1588.10,600.02,615.68,51.11,0000 0000 0000 0000 000000
2015-11-11 03:06:39,0.16,10.00,0.00,13.50,18.27,22.24,15.21,52.67,1016.56,2067.97,1487.36,1449.52,1587.54,600.23,615.97,51.16,0000 0000 0000 0000 000000
2015-11-11 03:11:40,0.13,10.01,0.00,13.52,18.27,22.25,15.10,52.55,1016.60,2067.96,1486.33,1448.77,1586.91,600.00,615.78,51.21,0000 0000 0000 0000 000000
2015-11-11 03:16:41,0.22,10.02,0.00,13.49,18.28,22.22,15.23,52.84,1016.62,2067.96,1485.09,1447.84,1585.88,599.70,615.43,51.26,0000 0000 0000 0000 000000
2015-11-11 03:21:43,0.25,10.03,0.00,13.52,18.28,22.24,15.20,52.88,1016.62,2067.95,1483.53,1446.68,1584.74,600.04,615.80,51.31,0000 0000 0000 0000 000000
2015-11-11 03:26:44,0.10,10.04,0.00,13.51,18.28,22.25,15.19,52.83,1016.61,2067.90,1482.61,1446.01,1584.02,600.15,615.80,51.36,0000 0000 0000 0000 000000
2015-11-11 03:31:45,0.18,10.05,0.00,13.52,18.29,22.22,15.13,52.73,1016.61,2067.94,1481.72,1445.30,1583.28,600.02,615.79,51.41,0000 0000 0000 0000 000000
2015-11-11 03:36:46,0.09,10.06,0.00,13.51,18.29,22.22,15.17,52.75,1016.62,2067.93,1480.86,1444.81,1582.66,600.37,616.09,51.46,0000 0000 0000 0000 000000
2015-11-11 03:41:48,0.19,10.07,0.00,13.51,18.29,22.23,15.24,52.94,1016.62,2067.93,1479.80,1444.02,1581.63,600.22,616.00,51.51,0000 0000 0000 0000 000000
2015-11-11 03:46:49,0.12,10.07,0.00,13.52,18.29,22.19,15.19,52.66,1016.61,2067.93,1479.01,1443.27,1581.01,600.10,615.83,51.56,0000 0000 0000 0000 000000
2015-11-11 03:51:50,0.09,10.08,0.00,13.50,18.29,22.24,15.25,52.82,1016.62,2067.95,1478.26,1443.00,1580.64,600.05,615.64,51.61,0000 0000 0000 0000 000000
2015-11-11 03:56:52,0.10,10.08,0.00,13.52,18.29,22.22,15.21,52.89,1016.67,2067.95,1477.80,1442.60,1580.02,599.87,615.59,51.66,0000 0000 0000 0000 000000
2015-11-11 04:01:53,0.10,10.09,0.00,13.52,18.29,22.21,15.06,52.59,1016.93,2067.91,1476.97,1442.01,1579.50,599.80,615.72,51.71,0000 0000 0000 0000 000000
2015-11-11 04:06:55,0.13,10.09,0.00,13.54,18.29,22.22,15.15,52.54,1017.08,2067.90,1476.11,1441.55,1578.98,600.05,616.13,51.76,0000 0000 0000 0000 000000
2015-11-11 04:11:56,0.12,10.10,0.00,13.54,18.29,22.19,15.21,52.64,1017.12,2067.93,1475.29,1441.01,1578.29,599.74,615.87,51.81,0000 0000 0000 0000 000000
2015-11-11 04:16:57,0.04,10.10,0.00,13.55,18.29,22.19,15.21,52.57,1017.33,2067.89,1474.78,1440.84,1577.99,600.11,616.23,51.86,0000 0000 0000 0000 000000
2015-11-11 04:21:58,0.11,10.11,0.00,13.56,18.29,22.20,15.19,52.56,1017.50,2067.65,1473.98,1440.06,1577.36,600.19,616.44,51.92,0000 0000 0000 0000 000000
2015-11-11 04:27:00,0.07,10.12,0.00,13.56,18.29,22.17,15.13,52.58,1017.51,2067.68,1473.13,1439.97,1577.00,599.91,616.15,51.97,0000 0000 0000 0000 000000
2015-11-11 04:32:01,0.17,10.12,0.00,13.59,18.29,22.21,15.20,52.50,1017.27,2067.61,1472.55,1439.31,1576.38,600.06,616.06,52.02,0000 0000 0000 0000 000000
2015-11-11 04:37:03,0.05,10.13,0.00,13.57,18.30,22.17,15.18,52.51,1017.12,2067.81,1471.99,1439.00,1576.01,599.94,615.88,52.07,0000 0000 0000 0000 000000
2015-11-11 04:42:04,0.11,10.13,0.00,13.59,18.31,22.18,15.18,52.38,1017.11,2067.84,1471.22,1438.80,1575.86,599.88,615.64,52.12,0000 0000 0000 0000 000000
2015-11-11 04:47:05,0.09,10.14,0.00,13.59,18.32,22.26,15.07,52.50,1017.12,2067.78,1470.84,1438.08,1575.09,600.01,615.84,52.17,0000 0000 0000 0000 000000
2015-11-11 04:52:07,0.07,10.14,0.00,13.60,18.32,22.23,15.19,52.65,1017.11,2067.88,1470.06,1437.99,1574.93,599.86,615.72,52.22,0000 0000 0000 0000 000000
2015-11-11 04:57:08,0.17,10.15,0.00,13.62,18.32,22.20,15.17,52.86,1017.11,2067.90,1469.34,1437.35,1574.16,599.78,615.65,52.27,0000 0000 0000 0000 000000
2015-11-11 05:02:09,0.03,10.15,0.00,13.60,18.32,22.23,15.23,52.62,1017.25,2067.89,1468.82,1437.00,1573.97,600.13,615.76,52.32,0000 0000 0000 0000 000000
2015-11-11 05:07:11,0.08,10.16,0.00,13.63,18.33,22.23,15.18,52.59,1017.51,2067.76,1468.04,1436.81,1573.31,600.03,616.07,52.37,0000 0000 0000 0000 000000
2015-11-11 05:12:12,0.09,10.16,0.00,13.63,18.34,22.22,15.16,52.37,1017.35,2067.44,1467.42,1436.08,1572.99,600.02,616.06,52.42,0000 0000 0000 0000 000000
2015-11-11 05:17:13,0.08,10.16,0.00,13.65,18.34,22.23,15.17,52.45,1017.18,2067.42,1466.64,1435.95,1572.26,599.99,615.75,52.47,0000 0000 0000 0000 000000
2015-11-11 05:22:15,0.12,10.17,0.00,13.66,18.34,22.25,15.12,52.58,1017.11,2067.42,1465.96,1435.22,1571.98,599.44,615.31,52.52,0000 0000 0000 0000 000000
2015-11-11 05:27:16,0.08,10.17,0.00,13.65,18.35,22.18,15.17,52.58,1017.11,2067.30,1465.11,1435.00,1571.33,599.80,615.22,52.57,0000 0000 0000 0000 000000
2015-11-11 05:32:17,0.16,10.18,0.00,13.68,18.36,22.18,15.17,52.50,1017.18,2067.47,1464.44,1434.54,1571.00,600.30,616.06,52.62,0000 0000 0000 0000 000000
2015-11-11 05:37:18,0.02,10.18,0.00,13.67,18.37,22.24,15.21,52.60,1017.43,2067.29,1464.00,1434.03,1570.52,599.95,615.87,52.67,0000 0000 0000 0000 000000
2015-11-11 05:42:20,0.08,10.19,0.00,13.69,18.37,22.23,15.18,52.53,1017.56,2067.20,1463.36,1433.88,1570.01,600.18,616.16,52.72,0000 0000 0000 0000 000000
2015-11-11 05:47:21,0.14,10.19,0.00,13.69,18.37,22.27,15.16,52.51,1017.59,2067.08,1462.60,1433.06,1569.32,600.03,615.91,52.77,0000 0000 0000 0000 000000
2015-11-11 05:52:22,0.05,10.20,0.00,13.70,18.39,22.34,15.18,52.48,1017.59,2067.07,1461.91,1432.90,1568.97,599.70,615.57,52.82,0000 0000 0000 0000 000000
2015-11-11 05:57:23,0.16,10.21,0.00,13.73,18.39,22.27,15.19,52.63,1017.55,2067.04,1461.08,1432.14,1568.25,599.95,615.87,52.88,0000 0000 0000 0000 000000
2015-11-11 06:02:24,0.07,10.21,0.00,13.72,18.39,22.24,15.17,52.67,1017.35,2067.02,1460.47,1431.95,1567.93,599.80,615.79,52.93,0000 0000 0000 0000 000000
2015-11-11 06:07:26,0.15,10.22,0.00,13.74,18.40,22.29,15.17,52.61,1017.31,2067.02,1459.74,1431.20,1567.13,599.96,615.74,52.98,0000 0000 0000 0000 000000
2015-11-11 06:12:27,0.13,10.22,0.00,13.74,18.42,22.28,15.22,52.64,1017.47,2067.00,1458.98,1430.60,1566.28,599.97,615.76,53.03,0000 0000 0000 0000 000000
2015-11-11 06:17:29,0.10,10.23,0.00,13.74,18.42,22.24,15.13,52.59,1017.36,2067.00,1458.16,1430.02,1565.93,599.62,615.32,53.08,0000 0000 0000 0000 000000
2015-11-11 06:22:30,0.12,10.24,0.00,13.76,18.42,22.28,15.23,52.88,1017.20,2067.00,1457.52,1429.77,1565.18,600.02,615.67,53.13,0000 0000 0000 0000 000000
2015-11-11 06:27:32,0.10,10.24,0.00,13.75,18.42,22.31,15.22,52.76,1017.12,2067.00,1456.77,1429.06,1564.83,600.08,615.58,53.18,0000 0000 0000 0000 000000
2015-11-11 06:32:33,0.09,10.25,0.00,13.77,18.43,22.32,15.17,52.94,1017.11,2066.99,1456.00,1428.86,1564.05,600.01,615.57,53.23,0000 0000 0000 0000 000000
2015-11-11 06:37:34,0.12,10.25,0.00,13.76,18.44,22.34,15.16,52.98,1017.12,2066.99,1455.12,1428.21,1563.94,599.99,615.55,53.28,0000 0000 0000 0000 000000
2015-11-11 06:42:36,0.12,10.26,0.00,13.77,18.44,22.35,15.17,52.98,1017.13,2066.98,1454.30,1427.98,1563.11,600.24,615.79,53.33,0000 0000 0000 0000 000000
2015-11-11 06:47:37,0.16,10.26,0.00,13.76,18.44,22.34,15.17,52.88,1017.11,2066.98,1453.37,1427.28,1562.76,600.10,615.68,53.38,0000 0000 0000 0000 000000
2015-11-11 06:52:39,0.10,10.27,0.00,13.76,18.44,22.36,15.10,53.11,1017.11,2066.98,1452.46,1426.97,1562.03,599.75,615.37,53.43,0000 0000 0000 0000 000000
2015-11-11 06:57:40,0.15,10.28,0.00,13.77,18.45,22.39,15.11,52.91,1017.11,2066.99,1451.75,1426.25,1561.49,599.76,615.21,53.48,0000 0000 0000 0000 000000
2015-11-11 07:02:41,0.05,10.29,0.00,13.77,18.46,22.37,15.14,53.08,1017.06,2066.99,1450.98,1425.99,1561.00,599.87,615.35,53.53,0000 0000 0000 0000 000000
2015-11-11 07:07:43,0.17,10.29,0.00,13.78,18.47,22.35,15.14,52.88,1017.07,2066.98,1450.12,1425.41,1560.43,600.05,615.63,53.58,0000 0000 0000 0000 000000
2015-11-11 07:12:44,0.08,10.30,0.00,13.77,18.47,22.42,15.20,52.83,1017.26,2066.99,1449.42,1425.01,1559.98,599.99,615.61,53.63,0000 0000 0000 0000 000000
2015-11-11 07:17:45,0.17,10.30,0.00,13.79,18.48,22.39,15.19,52.42,1017.84,2066.99,1448.49,1424.50,1559.25,599.97,615.89,53.69,0000 0000 0000 0000 000000
2015-11-11 07:22:46,0.03,10.31,0.00,13.79,18.49,22.38,15.17,52.52,1017.97,2066.98,1447.94,1424.01,1558.98,599.75,615.78,53.74,0000 0000 0000 0000 000000
2015-11-11 07:27:47,0.13,10.31,0.00,13.81,18.49,22.45,15.14,52.51,1018.08,2066.98,1447.11,1423.82,1558.28,599.95,615.97,53.79,0000 0000 0000 0000 000000
2015-11-11 07:32:49,0.13,10.32,0.00,13.82,18.49,22.42,15.10,52.58,1018.09,2066.97,1446.39,1423.09,1557.99,599.63,615.60,53.84,0000 0000 0000 0000 000000
2015-11-11 07:37:50,0.06,10.32,0.00,13.82,18.50,22.34,15.16,52.51,1018.09,2066.98,1445.87,1422.98,1557.39,600.38,616.21,53.89,0000 0000 0000 0000 000000
2015-11-11 07:42:51,0.12,10.33,0.00,13.83,18.52,22.37,15.17,52.42,1018.08,2066.95,1445.05,1422.37,1556.98,600.02,615.98,53.94,0000 0000 0000 0000 000000
2015-11-11 07:47:52,0.12,10.34,0.00,13.80,18.52,22.40,15.22,52.73,1018.08,2066.94,1444.24,1422.00,1556.23,599.72,615.68,53.99,0000 0000 0000 0000 000000
2015-11-11 07:52:54,0.07,10.34,0.00,13.77,18.52,22.42,15.16,52.56,1017.81,2066.97,1443.78,1421.72,1555.99,600.00,615.93,54.04,0000 0000 0000 0000 000000
2015-11-11 07:57:56,0.12,10.35,0.00,13.77,18.53,22.46,15.17,52.52,1017.87,2066.97,1443.04,1421.05,1555.41,600.29,616.21,54.09,0000 0000 0000 0000 000000
2015-11-11 08:02:57,0.06,10.35,0.00,13.77,18.54,22.41,15.23,52.85,1017.92,2066.96,1442.50,1420.97,1555.01,600.02,616.06,54.14,0000 0000 0000 0000 000000
2015-11-11 08:07:58,0.10,10.36,0.00,13.78,18.54,22.43,15.20,52.92,1017.97,2066.91,1441.98,1420.36,1554.57,599.86,615.86,54.19,0000 0000 0000 0000 000000
2015-11-11 08:13:00,0.07,10.36,0.00,13.79,18.54,22.49,15.29,52.84,1018.02,2066.83,1441.15,1420.00,1554.01,600.34,616.29,54.24,0000 0000 0000 0000 000000
2015-11-11 08:18:01,0.13,10.36,0.00,13.79,18.54,22.45,15.22,52.88,1017.89,2066.62,1440.32,1419.58,1553.47,600.06,615.86,54.29,0000 0000 0000 0000 000000
2015-11-11 08:23:02,0.08,10.37,0.00,13.82,18.54,22.44,15.25,52.81,1017.63,2066.46,1439.57,1419.01,1553.00,600.15,615.94,54.34,0000 0000 0000 0000 000000
2015-11-11 08:28:03,0.08,10.37,0.00,13.80,18.55,22.45,15.14,52.77,1017.66,2066.16,1438.90,1418.66,1552.31,599.84,615.45,54.39,0000 0000 0000 0000 000000
2015-11-11 08:33:05,0.09,10.38,0.00,13.81,18.55,22.46,15.17,52.78,1017.70,2066.12,1438.06,1418.02,1551.93,599.62,615.41,54.44,0000 0000 0000 0000 000000
2015-11-11 08:38:06,0.14,10.39,0.00,13.82,18.55,22.48,15.13,52.55,1018.05,2066.09,1437.26,1417.74,1551.12,599.86,615.90,54.49,0000 0000 0000 0000 000000
2015-11-11 08:43:07,0.16,10.39,0.00,13.80,18.56,22.47,15.25,52.62,1018.08,2066.06,1436.23,1416.90,1550.42,600.13,616.08,54.54,0000 0000 0000 0000 000000
2015-11-11 08:48:08,0.17,10.40,0.00,13.82,18.56,22.51,15.22,52.50,1018.09,2066.07,1435.24,1416.07,1549.72,599.95,615.95,54.59,0000 0000 0000 0000 000000
2015-11-11 08:53:10,0.11,10.41,0.00,13.82,18.56,22.53,15.16,52.49,1018.09,2066.09,1434.33,1415.89,1549.02,599.74,615.84,54.65,0000 0000 0000 0000 000000
2015-11-11 08:58:11,0.16,10.42,0.00,13.84,18.57,22.49,15.18,52.36,1018.07,2066.06,1433.46,1415.09,1548.41,600.06,616.07,54.70,0000 0000 0000 0000 000000
2015-11-11 09:03:12,0.12,10.42,0.00,13.86,18.57,22.49,15.17,52.52,1017.97,2066.09,1432.60,1414.71,1547.92,599.74,615.53,54.75,0000 0000 0000 0000 000000
2015-11-11 09:08:14,0.13,10.43,0.00,13.85,18.57,22.48,15.13,52.48,1018.06,2066.08,1431.69,1414.03,1547.11,600.01,615.83,54.80,0000 0000 0000 0000 000000
2015-11-11 09:13:15,0.13,10.44,0.00,13.87,18.57,22.49,15.12,52.49,1018.08,2066.04,1430.82,1413.62,1546.65,600.00,615.78,54.85,0000 0000 0000 0000 000000
2015-11-11 09:18:17,0.15,10.45,0.00,13.86,18.57,22.46,15.21,52.64,1018.09,2066.03,1429.67,1413.01,1546.00,599.78,615.69,54.90,0000 0000 0000 0000 000000
2015-11-11 09:23:18,0.13,10.45,0.00,13.84,18.57,22.54,15.15,52.53,1018.08,2066.07,1428.86,1412.64,1545.32,599.88,615.71,54.95,0000 0000 0000 0000 000000
2015-11-11 09:28:20,0.13,10.46,0.00,13.83,18.57,22.48,15.26,52.48,1018.01,2066.13,1427.81,1412.01,1544.85,600.23,616.18,55.00,0000 0000 0000 0000 000000
2015-11-11 09:33:21,0.15,10.47,0.00,13.84,18.59,22.47,15.21,52.42,1017.78,2066.10,1426.95,1411.35,1544.05,599.97,615.65,55.05,0000 0000 0000 0000 000000
2015-11-11 09:38:22,0.15,10.47,0.00,13.87,18.59,22.52,15.15,52.25,1017.62,2066.14,1425.90,1410.92,1543.37,600.01,615.42,55.10,0000 0000 0000 0000 000000
2015-11-11 09:43:23,0.20,10.48,0.00,13.82,18.59,22.47,15.12,52.18,1017.61,2066.11,1424.62,1410.12,1542.74,600.21,615.80,55.15,0000 0000 0000 0000 000000
2015-11-11 09:48:25,0.11,10.49,0.00,13.78,18.59,22.47,15.15,52.26,1017.64,2066.09,1423.70,1409.80,1542.04,600.28,616.14,55.20,0000 0000 0000 0000 000000
2015-11-11 09:53:26,0.15,10.50,0.00,13.79,18.60,22.51,15.17,52.63,1017.70,2066.22,1422.93,1409.05,1541.47,599.70,615.60,55.25,0000 0000 0000 0000 000000
2015-11-11 09:58:27,0.07,10.50,0.00,13.81,18.62,22.46,15.13,52.47,1017.60,2066.11,1422.44,1408.80,1540.92,600.17,615.81,55.30,0000 0000 0000 0000 000000
2015-11-11 10:03:28,0.16,10.51,0.00,13.84,18.62,22.52,15.10,52.36,1017.58,2066.04,1421.55,1408.05,1540.08,599.95,615.58,55.35,0000 0000 0000 0000 000000
2015-11-11 10:08:30,0.20,10.52,0.00,13.78,18.62,22.44,15.18,52.57,1017.59,2066.04,1420.23,1407.15,1539.12,599.76,615.42,55.40,0000 0000 0000 0000 000000
2015-11-11 10:13:31,0.13,10.53,0.00,13.76,18.62,22.52,15.17,52.48,1017.59,2066.02,1419.35,1406.83,1538.30,600.10,615.93,55.45,0000 0000 0000 0000 000000
2015-11-11 10:18:32,0.09,10.53,0.00,13.79,18.62,22.50,15.18,52.57,1017.59,2066.01,1418.78,1406.08,1537.99,599.76,615.40,55.50,0000 0000 0000 0000 000000
2015-11-11 10:23:34,0.09,10.54,0.00,13.79,18.62,22.44,15.19,52.42,1017.59,2066.00,1418.03,1405.97,1537.24,600.35,616.02,55.56,0000 0000 0000 0000 000000
2015-11-11 10:28:35,0.14,10.55,0.00,13.80,18.63,22.43,15.22,52.63,1017.59,2066.01,1417.39,1405.30,1536.98,600.20,615.87,55.61,0000 0000 0000 0000 000000
2015-11-11 10:33:36,0.11,10.55,0.00,13.78,18.63,22.54,15.25,52.77,1017.59,2066.00,1416.59,1404.92,1536.28,600.14,615.95,55.66,0000 0000 0000 0000 000000
2015-11-11 10:38:38,0.19,10.56,0.00,13.76,18.63,22.58,15.12,52.68,1017.59,2066.00,1415.46,1404.12,1535.67,599.86,615.64,55.71,0000 0000 0000 0000 000000
2015-11-11 10:43:39,0.05,10.57,0.00,13.77,18.63,22.55,15.26,52.76,1017.59,2066.00,1414.80,1403.98,1535.02,600.20,616.00,55.76,0000 0000 0000 0000 000000
2015-11-11 10:48:41,0.13,10.57,0.00,13.76,18.63,22.53,15.15,52.51,1017.59,2066.00,1414.01,1403.35,1534.92,599.97,615.83,55.81,0000 0000 0000 0000 000000
2015-11-11 10:53:42,0.12,10.58,0.00,13.78,18.63,22.56,15.15,52.63,1017.58,2066.00,1413.16,1402.99,1534.10,600.14,615.91,55.86,0000 0000 0000 0000 000000
2015-11-11 10:58:43,0.11,10.58,0.00,13.79,18.63,22.59,15.09,52.58,1017.53,2066.00,1412.58,1402.57,1533.88,599.86,615.63,55.91,0000 0000 0000 0000 000000
2015-11-11 11:03:44,0.14,10.59,0.00,13.80,18.62,22.57,15.20,52.66,1017.49,2066.00,1411.63,1402.00,1533.09,600.08,615.68,55.96,0000 0000 0000 0000 000000
2015-11-11 11:08:46,0.16,10.60,0.00,13.77,18.62,22.58,15.14,52.70,1017.59,2066.00,1410.72,1401.47,1532.61,599.98,615.80,56.01,0000 0000 0000 0000 000000
2015-11-11 11:13:47,0.14,10.61,0.00,13.73,18.62,22.51,15.08,52.59,1017.61,2066.00,1409.68,1400.87,1531.84,599.82,615.66,56.06,0000 0000 0000 0000 000000
2015-11-11 11:18:49,0.16,10.61,0.00,13.75,18.62,22.57,15.15,52.55,1017.60,2066.00,1408.80,1400.11,1531.08,599.95,615.81,56.11,0000 0000 0000 0000 000000
2015-11-11 11:23:50,0.07,10.62,0.00,13.74,18.62,22.54,15.15,52.65,1017.59,2066.01,1408.04,1399.98,1530.70,599.72,615.52,56.16,0000 0000 0000 0000 000000
2015-11-11 11:28:51,0.15,10.63,0.00,13.74,18.62,22.56,15.28,52.65,1017.59,2066.00,1407.44,1399.33,1530.03,600.22,616.01,56.21,0000 0000 0000 0000 000000
2015-11-11 11:33:52,0.05,10.63,0.00,13.78,18.62,22.55,15.12,52.66,1017.59,2066.00,1406.86,1399.00,1529.74,599.70,615.46,56.26,0000 0000 0000 0000 000000
2015-11-11 11:38:54,0.14,10.64,0.00,13.76,18.62,22.53,15.15,52.60,1017.59,2066.00,1406.06,1398.57,1529.04,600.12,615.93,56.31,0000 0000 0000 0000 000000
2015-11-11 11:43:55,0.13,10.64,0.00,13.71,18.62,22.59,15.19,52.78,1017.61,2066.00,1405.24,1398.01,1528.62,599.85,615.74,56.37,0000 0000 0000 0000 000000
2015-11-11 11:48:56,0.12,10.65,0.00,13.69,18.62,22.50,15.16,52.62,1017.67,2066.00,1404.41,1397.73,1528.01,600.09,616.16,56.42,0000 0000 0000 0000 000000
2015-11-11 11:53:58,0.15,10.66,0.00,13.70,18.62,22.55,15.20,52.53,1017.77,2066.00,1403.59,1397.04,1527.46,600.07,616.05,56.47,0000 0000 0000 0000 000000
2015-11-11 11:58:59,0.11,10.66,0.00,13.74,18.61,22.55,15.23,52.63,1017.74,2066.00,1402.63,1396.75,1526.90,599.87,615.77,56.52,0000 0000 0000 0000 000000
2015-11-11 12:04:00,0.13,10.67,0.00,13.77,18.60,22.55,15.14,52.46,1017.71,2066.01,1401.82,1396.04,1526.10,599.90,615.85,56.57,0000 0000 0000 0000 000000
2015-11-11 12:09:02,0.12,10.68,0.00,13.77,18.60,22.51,15.07,52.46,1017.65,2066.01,1400.90,1395.71,1525.65,599.71,615.53,56.62,0000 0000 0000 0000 000000
2015-11-11 12:14:03,0.14,10.69,0.00,13.77,18.60,22.54,15.19,52.57,1017.61,2066.01,1399.99,1395.03,1524.94,599.81,615.59,56.67,0000 0000 0000 0000 000000
2015-11-11 12:19:04,0.19,10.69,0.00,13.73,18.60,22.49,15.14,52.64,1017.63,2066.01,1399.10,1394.39,1524.12,599.98,615.85,56.72,0000 0000 0000 0000 000000
2015-11-11 12:24:06,0.11,10.70,0.00,13.72,18.59,22.49,15.27,52.77,1017.63,2066.01,1398.42,1393.97,1523.68,600.06,615.86,56.77,0000 0000 0000 0000 000000
2015-11-11 12:29:07,0.16,10.71,0.00,13.72,18.59,22.51,15.20,52.75,1017.60,2066.02,1397.61,1393.22,1523.01,600.15,616.15,56.82,0000 0000 0000 0000 000000
2015-11-11 12:34:08,0.10,10.71,0.00,13.72,18.59,22.50,15.23,52.78,1017.59,2066.01,1396.73,1392.95,1522.30,600.10,616.02,56.87,0000 0000 0000 0000 000000
2015-11-11 12:39:10,0.13,10.72,0.00,13.74,18.59,22.52,15.23,52.62,1017.60,2066.01,1395.93,1392.18,1521.84,600.09,615.92,56.92,0000 0000 0000 0000 000000
2015-11-11 12:44:11,0.13,10.73,0.00,13.75,18.59,22.53,15.16,52.63,1017.64,2066.00,1395.00,1391.79,1521.08,600.39,616.23,56.97,0000 0000 0000 0000 000000
2015-11-11 12:49:13,0.18,10.74,0.00,13.77,18.59,22.55,15.21,52.71,1017.72,2066.00,1394.01,1391.02,1520.37,600.09,615.93,57.02,0000 0000 0000 0000 000000